• In Austria
  • List of Countries
  • For 7 days
  • Water Temperature
  • Satellite Maps
  • Weather Map
  • News
  • Weather Widgets
  • user-avatar
    Login

    Hourly Weather Kipungo

    Today, 22 October, Sunday

    Time Temperature Precipitation Wind Pressure Humidity
    00:00 +23°C° 0 mm 2 mps 654 mmHg 52%
    01:00 +22°C° 0 mm 1 mps 654 mmHg 58%
    02:00 +21°C° 0 mm 1 mps 654 mmHg 60%
    03:00 +21°C° 0 mm 1 mps 654 mmHg 62%
    04:00 +18°C° 0 mm 0 mps 654 mmHg 64%
    05:00 +20°C° 0 mm 0 mps 654 mmHg 58%
    06:00 +21°C° 0 mm 0 mps 655 mmHg 51%
    07:00 +24°C° 0 mm 0 mps 656 mmHg 43%
    08:00 +29°C° 0 mm 1 mps 656 mmHg 33%
    09:00 +32°C° 0 mm 2 mps 657 mmHg 23%
    10:00 +36°C° 0 mm 3 mps 657 mmHg 12%
    11:00 +37°C° 0 mm 3 mps 656 mmHg 12%
    12:00 +39°C° 0 mm 3 mps 656 mmHg 11%
    13:00 +40°C° 0 mm 3 mps 656 mmHg 11%
    14:00 +39°C° 0 mm 3 mps 655 mmHg 12%
    15:00 +38°C° 0 mm 3 mps 655 mmHg 14%
    16:00 +38°C° 0 mm 3 mps 654 mmHg 16%
    17:00 +35°C° 0.1 mm 3 mps 654 mmHg 22%
    18:00 +33°C° 0.1 mm 3 mps 654 mmHg 28%
    19:00 +30°C° 0.1 mm 3 mps 655 mmHg 34%
    20:00 +28°C° 0.7 mm 3 mps 655 mmHg 42%
    21:00 +26°C° 0.7 mm 2 mps 655 mmHg 50%
    22:00 +25°C° 0.7 mm 2 mps 655 mmHg 58%
    23:00 +24°C° 0 mm 2 mps 655 mmHg 60%

    Tomorrow, 23 October, Monday

    Time Temperature Precipitation Wind Pressure Humidity
    00:00 +23°C° 0 mm 1 mps 654 mmHg 62%
    01:00 +23°C° 0 mm 1 mps 654 mmHg 64%
    02:00 +23°C° 0 mm 1 mps 654 mmHg 63%
    03:00 +22°C° 0 mm 1 mps 653 mmHg 63%
    04:00 +20°C° 0 mm 0 mps 653 mmHg 63%
    05:00 +21°C° 0.2 mm 0 mps 654 mmHg 60%
    06:00 +22°C° 0.2 mm 0 mps 654 mmHg 56%
    07:00 +22°C° 0.2 mm 0 mps 654 mmHg 53%
    08:00 +28°C° 0.1 mm 1 mps 655 mmHg 44%
    09:00 +31°C° 0.1 mm 1 mps 656 mmHg 35%
    10:00 +35°C° 0.1 mm 1 mps 657 mmHg 26%
    11:00 +37°C° 0 mm 2 mps 656 mmHg 25%
    12:00 +37°C° 0 mm 2 mps 655 mmHg 23%
    13:00 +38°C° 0 mm 3 mps 655 mmHg 21%
    14:00 +37°C° 0 mm 2 mps 654 mmHg 23%
    15:00 +36°C° 0 mm 2 mps 654 mmHg 24%
    16:00 +35°C° 0 mm 2 mps 653 mmHg 25%
    17:00 +32°C° 0.8 mm 2 mps 653 mmHg 33%
    18:00 +29°C° 0.8 mm 2 mps 653 mmHg 41%
    19:00 +27°C° 0.8 mm 3 mps 653 mmHg 49%
    20:00 +26°C° 0.5 mm 3 mps 653 mmHg 53%
    21:00 +25°C° 0.5 mm 3 mps 653 mmHg 56%
    22:00 +25°C° 0.5 mm 3 mps 654 mmHg 60%
    23:00 +24°C° 0.5 mm 2 mps 653 mmHg 64%

    Day after tomorrow, 24 October, Tuesday

    Time Temperature Precipitation Wind Pressure Humidity
    00:00 +23°C° 0.5 mm 1 mps 653 mmHg 68%
    01:00 +23°C° 0.5 mm 1 mps 653 mmHg 72%
    02:00 +22°C° 0.3 mm 1 mps 652 mmHg 73%
    03:00 +22°C° 0.3 mm 1 mps 652 mmHg 74%
    04:00 +22°C° 0.3 mm 1 mps 652 mmHg 75%
    05:00 +23°C° 0 mm 1 mps 653 mmHg 72%
    06:00 +23°C° 0 mm 1 mps 653 mmHg 68%
    07:00 +24°C° 0 mm 2 mps 654 mmHg 65%
    08:00 +27°C° 0 mm 1 mps 655 mmHg 55%
    09:00 +30°C° 0 mm 1 mps 656 mmHg 45%
    10:00 +33°C° 0 mm 1 mps 657 mmHg 35%
    11:00 +35°C° 0 mm 1 mps 656 mmHg 31%
    12:00 +36°C° 0 mm 1 mps 656 mmHg 27%
    13:00 +39°C° 0 mm 1 mps 655 mmHg 23%
    14:00 +36°C° 0.1 mm 1 mps 654 mmHg 26%
    15:00 +35°C° 0.1 mm 2 mps 654 mmHg 28%
    16:00 +32°C° 0.1 mm 2 mps 653 mmHg 31%
    17:00 +30°C° 1.4 mm 2 mps 653 mmHg 40%
    18:00 +28°C° 1.4 mm 3 mps 653 mmHg 49%
    19:00 +26°C° 1.4 mm 3 mps 653 mmHg 58%
    20:00 +26°C° 0.2 mm 3 mps 654 mmHg 61%
    21:00 +25°C° 0.2 mm 3 mps 655 mmHg 64%
    22:00 +25°C° 0.2 mm 3 mps 655 mmHg 67%
    23:00 +25°C° 0 mm 3 mps 655 mmHg 68%

    25 October, Wednesday

    Time Temperature Precipitation Wind Pressure Humidity
    00:00 +24°C° 0 mm 2 mps 654 mmHg 68%
    01:00 +24°C° 0 mm 2 mps 654 mmHg 68%
    02:00 +24°C° 0.4 mm 1 mps 654 mmHg 69%
    03:00 +23°C° 0.4 mm 1 mps 653 mmHg 71%
    04:00 +23°C° 0.4 mm 1 mps 653 mmHg 72%
    05:00 +23°C° 0.4 mm 1 mps 654 mmHg 70%
    06:00 +24°C° 0.4 mm 2 mps 654 mmHg 67%
    07:00 +24°C° 0.4 mm 2 mps 655 mmHg 65%
    08:00 +26°C° 0.1 mm 2 mps 655 mmHg 58%
    09:00 +28°C° 0.1 mm 2 mps 656 mmHg 51%
    10:00 +30°C° 0.1 mm 2 mps 656 mmHg 44%
    11:00 +31°C° 0.1 mm 2 mps 655 mmHg 41%
    12:00 +32°C° 0.1 mm 2 mps 655 mmHg 38%
    13:00 +34°C° 0.1 mm 2 mps 654 mmHg 35%
    14:00 +32°C° 0.1 mm 2 mps 654 mmHg 36%
    15:00 +32°C° 0.1 mm 2 mps 653 mmHg 36%
    16:00 +31°C° 0.1 mm 3 mps 653 mmHg 37%
    17:00 +30°C° 0.1 mm 3 mps 653 mmHg 41%
    18:00 +28°C° 0.1 mm 3 mps 653 mmHg 46%
    19:00 +27°C° 0.1 mm 3 mps 654 mmHg 50%
    20:00 +26°C° 0 mm 2 mps 654 mmHg 54%
    21:00 +25°C° 0 mm 2 mps 654 mmHg 57%
    22:00 +25°C° 0 mm 1 mps 655 mmHg 61%
    23:00 +24°C° 0 mm 1 mps 654 mmHg 64%

    26 October, Thursday

    Time Temperature Precipitation Wind Pressure Humidity
    00:00 +24°C° 0 mm 1 mps 654 mmHg 66%
    01:00 +21°C° 0 mm 0 mps 653 mmHg 69%
    02:00 +21°C° 0 mm 0 mps 653 mmHg 71%
    03:00 +22°C° 0 mm 1 mps 653 mmHg 72%
    04:00 +22°C° 0 mm 1 mps 653 mmHg 74%
    05:00 +23°C° 0 mm 1 mps 653 mmHg 69%
    06:00 +24°C° 0 mm 1 mps 654 mmHg 65%
    07:00 +23°C° 0 mm 0 mps 655 mmHg 61%
    08:00 +28°C° 0 mm 1 mps 655 mmHg 48%
    09:00 +31°C° 0 mm 1 mps 656 mmHg 36%
    10:00 +34°C° 0 mm 1 mps 657 mmHg 23%
    11:00 +36°C° 0 mm 1 mps 656 mmHg 21%
    12:00 +39°C° 0 mm 1 mps 656 mmHg 19%
    13:00 +40°C° 0 mm 1 mps 656 mmHg 17%
    14:00 +39°C° 0.1 mm 1 mps 655 mmHg 20%
    15:00 +36°C° 0.1 mm 1 mps 654 mmHg 22%
    16:00 +34°C° 0.1 mm 1 mps 653 mmHg 25%
    17:00 +32°C° 0 mm 1 mps 653 mmHg 28%
    18:00 +31°C° 0 mm 2 mps 653 mmHg 31%
    19:00 +30°C° 0 mm 2 mps 653 mmHg 34%
    20:00 +29°C° 0 mm 2 mps 653 mmHg 39%
    21:00 +27°C° 0 mm 2 mps 653 mmHg 43%
    22:00 +26°C° 0 mm 3 mps 653 mmHg 47%
    23:00 +25°C° 0 mm 2 mps 653 mmHg 52%

    27 October, Friday

    Time Temperature Precipitation Wind Pressure Humidity
    00:00 +24°C° 0 mm 2 mps 652 mmHg 56%
    01:00 +23°C° 0 mm 1 mps 652 mmHg 60%
    02:00 +23°C° 0 mm 1 mps 652 mmHg 63%
    03:00 +22°C° 0 mm 1 mps 651 mmHg 66%
    04:00 +22°C° 0 mm 1 mps 651 mmHg 69%
    05:00 +23°C° 0 mm 1 mps 652 mmHg 66%
    06:00 +23°C° 0 mm 1 mps 652 mmHg 63%
    07:00 +24°C° 0 mm 1 mps 653 mmHg 59%
    08:00 +28°C° 0 mm 1 mps 654 mmHg 45%
    09:00 +32°C° 0 mm 1 mps 655 mmHg 32%
    10:00 +36°C° 0 mm 1 mps 656 mmHg 18%
    11:00 +37°C° 0 mm 1 mps 655 mmHg 16%
    12:00 +40°C° 0 mm 1 mps 655 mmHg 15%
    13:00 +41°C° 0 mm 1 mps 655 mmHg 14%
    14:00 +39°C° 0 mm 2 mps 654 mmHg 16%
    15:00 +37°C° 0 mm 3 mps 653 mmHg 18%
    16:00 +35°C° 0 mm 4 mps 652 mmHg 20%
    17:00 +34°C° 0 mm 3 mps 652 mmHg 25%
    18:00 +31°C° 0 mm 3 mps 653 mmHg 30%
    19:00 +29°C° 0 mm 3 mps 653 mmHg 34%
    20:00 +28°C° 0 mm 3 mps 653 mmHg 38%
    21:00 +27°C° 0 mm 3 mps 653 mmHg 43%
    22:00 +26°C° 0 mm 3 mps 653 mmHg 47%
    23:00 +25°C° 0 mm 3 mps 652 mmHg 49%
    Show more